Regional Weather Roundup
Issued by NWS

Home | Current Version | Previous Version | Graphics & Text | Print | Product List | Glossary On
Versions: 1 2 3 4 5 6 7 8 9 10 11 12 13 14 15 16 17 18 19 20 21 22 23 24 25 26 27 28 29 30 31 32 33 34 35 36 37 38 39 40 41 42 43 44 45 46 47 48 49 50
000
ASUS43 KTOP 182159
RWRKS

WEATHER ROUNDUP FOR KANSAS
NATIONAL WEATHER SERVICE GOODLAND KS
400 PM CST THU JAN 18 2018

NOTE:  "FAIR" INDICATES FEW OR NO CLOUDS BELOW 12,000 FEET WITH NO
SIGNIFICANT WEATHER AND/OR OBSTRUCTIONS TO VISIBILITY.

KSZ001>006-013>018-027>032-041>047-182300-
NORTHWEST KANSAS

CITY           SKY/WX    TMP DP  RH WIND       PRES   REMARKS
GOODLAND       CLOUDY    61   9  12 SW6       29.95F
HAYS           CLOUDY    60  18  19 SW13      29.97F
HILL CITY      CLOUDY    63  17  17 SW9       29.94F
RUSSELL        CLOUDY    60  20  21 S16       29.96F
$$

KSZ061>065-074>080-084>089-182300-
SOUTHWEST KANSAS

CITY           SKY/WX    TMP DP  RH WIND       PRES   REMARKS
DODGE CITY     CLOUDY    59  15  18 SW13      30.01F
GARDEN CITY    CLOUDY    61   8  12 SW14      29.99F
GREAT BEND     CLOUDY    59  16  18 SW15      30.00F
LIBERAL        CLOUDY    60   9  13 SW12      30.03F
$$

KSZ066>073-081>083-090>101-182300-
SOUTHEAST KANSAS

CITY           SKY/WX    TMP DP  RH WIND       PRES   REMARKS
CHANUTE          N/A     45  22  40 S9        30.14
COFFEYVILLE    SUNNY     47  20  34 S16G24    30.17F
HUTCHINSON     CLOUDY    50  16  25 S15G23    30.05F
MEDICINE LODGE   N/A     57  16  20 S15G21    30.05F
NEWTON         CLOUDY    49  19  30 SW16      30.07F
PARSONS        SUNNY     45  22  40 S13       30.15F
WICHITA INTL   CLOUDY    52  20  28 S18       30.08F
WICHITA JABRA  CLOUDY    49  20  31 SW20      30.09R
WICHITA MCCONL CLOUDY    50  18  28 SW20G26   30.09S
WINFIELD       SUNNY     49  17  28 S20G30    30.14F
$$

KSZ007>012-019>026-033>040-048>060-102>105-182300-
NORTHEAST KANSAS

CITY           SKY/WX    TMP DP  RH WIND       PRES   REMARKS
CONCORDIA      CLOUDY    43  27  53 S10       29.98F
EMPORIA        CLOUDY    46  22  38 SW13G22   30.08F
LAWRENCE       CLOUDY    39  24  55 SE13      30.10F WCI  31
MANHATTAN      CLOUDY    46  26  45 S12       30.03F
OLATHE IND     SUNNY     38  21  50 S17G23    30.11F WCI  28
OLATHE EXE     SUNNY     37  20  50 S13G22    30.11F WCI  29
SALINA         CLOUDY    46  27  47 S9        30.02F
TOPEKA BILLARD CLOUDY    43  26  51 S7        30.07F
TOPEKA FORBES  CLOUDY    43  25  49 S13       30.07F
$$



USA.gov is the U.S. government's official web portal to all federal, state and local government web resources and services.